Terminal Aerodrome Forecast
Issued by NWS Rapid City, SD

Home | Current Version | Previous Version | Text Only | Print | Product List | Glossary Off
Versions: 1 2 3 4 5 6 7 8 9 10 11 12 13 14 15 16 17 18 19

000
FTUS43 KUNR 260500
TAFRAP
TAF
KRAP 260520Z 2606/2706 33028G40KT P6SM BKN050
     FM260900 33015G25KT P6SM BKN040
     FM261500 VRB05KT P6SM BKN025=

USA.gov is the U.S. government's official web portal to all federal, state and local government web resources and services.